This is the latest recevied weather packets stored in our database for station/object W4DEX-2. If no packets are shown the sender has not sent any weather packets the latest 10 day(s).
| Time | Temp. | Humidity | Pressure | Rain* | Wind** | Luminosity | Snow |
|---|---|---|---|---|---|---|---|
| 1778019302 | 25° C | 32% | 1013.2 hPa | 0 mm | 5.36 m/s, 180° | - | - |
| 1778018102 | 25.56° C | 31% | 1013.3 hPa | 0 mm | 5.36 m/s, 179° | - | - |
| 1778017802 | 25.56° C | 31% | 1013.4 hPa | 0 mm | 4.47 m/s, 174° | - | - |
| 1778017503 | 25.56° C | 30% | 1013.5 hPa | 0 mm | 4.92 m/s, 179° | - | - |
| 1778017203 | 25.56° C | 31% | 1013.6 hPa | 0 mm | 5.36 m/s, 183° | - | - |
| 1778016902 | 25° C | 32% | 1013.6 hPa | 0 mm | 4.92 m/s, 180° | - | - |
| 1778016602 | 25° C | 32% | 1013.6 hPa | 0 mm | 4.92 m/s, 174° | - | - |
| 1778015702 | 25° C | 31% | 1013.5 hPa | 0 mm | 4.92 m/s, 173° | - | - |
| 1778015402 | 24.44° C | 30% | 1013.6 hPa | 0 mm | 4.92 m/s, 180° | - | - |
| 1778015102 | 25° C | 30% | 1013.6 hPa | 0 mm | 5.81 m/s, 184° | - | - |
| 1778014802 | 25° C | 31% | 1013.6 hPa | 0 mm | 4.92 m/s, 178° | - | - |
| 1778014202 | 25.56° C | 30% | 1013.6 hPa | 0 mm | 6.71 m/s, 180° | - | - |
| 1778013902 | 26.11° C | 28% | 1013.7 hPa | 0 mm | 5.36 m/s, 182° | - | - |
| 1778013303 | 26.11° C | 28% | 1013.8 hPa | 0 mm | 4.92 m/s, 171° | - | - |
| 1778013003 | 26.67° C | 28% | 1013.8 hPa | 0 mm | 4.92 m/s, 180° | - | - |
| 1778012403 | 26.11° C | 29% | 1013.7 hPa | 0 mm | 4.92 m/s, 184° | - | - |
| 1778011202 | 26.11° C | 29% | 1014 hPa | 0 mm | 4.92 m/s, 180° | - | - |
| 1778010902 | 25.56° C | 30% | 1014.2 hPa | 0 mm | 5.36 m/s, 175° | - | - |
| 1778010609 | 25.56° C | 30% | 1014.2 hPa | 0 mm | 5.36 m/s, 175° | - | - |
| 1778010302 | 26.11° C | 29% | 1014.3 hPa | 0 mm | 4.02 m/s, 194° | - | - |
| 1778010002 | 25.56° C | 30% | 1014.3 hPa | 0 mm | 5.81 m/s, 182° | - | - |
| 1778009707 | 26.11° C | 30% | 1014.3 hPa | 0 mm | 4.92 m/s, 180° | - | - |
| 1778009402 | 26.11° C | 29% | 1014.4 hPa | 0 mm | 4.92 m/s, 178° | - | - |
| 1778009102 | 26.11° C | 28% | 1014.4 hPa | 0 mm | 4.92 m/s, 177° | - | - |
| 1778008803 | 25.56° C | 29% | 1014.4 hPa | 0 mm | 5.36 m/s, 183° | - | - |
* Rain latest hour (hover to see other rain measurements)
** Current wind speed in m/s (hover to see current wind gust speed)